Find Starlink 35091

NORAD ID: 65640 Int'l Des: 2025-210 Owner: SPXS Country: US Constellation: starlink operational
LEOCIRCULAR

Current View

Loading 3D Globe...

About Starlink 35091

Description loading...

Upcoming Passes

Passes for default location (London). Set your location on the main map for personalized predictions.

Altitude History

Loading altitude history...

Two-Line Element Set

1 65640U 25210U 26151.50670491 .00029888 00000-0 89165-3 0 9995
2 65640 53.1600 281.4889 0001062 69.7005 290.4111 15.34418660 40420
Epoch: May 31, 2026 • Age: 7 hours

Current Status

Altitude 468.5 km
Velocity 7.64 km/s
Sub-Earth Point 53.27°N, 164.08°W
Launch Date Sep 18, 2025
Age 0.6 years
Type internet

Technical Details

Classification Payload
Mass 575.00 kg
Dry Mass 530.00 kg
Total Mass 575.00 kg
Length 0.30 m
Diameter 4.10 m
Span 29.00 m
Shape Box + pan
Manufacturer SPXS
Bus Type Starlink V2MO
Phase Status In Orbit
Owner/State SPXS/US

Most Searched